697  
ASUS41 KOKX 100205  
RWROKX  
 
REGIONAL WEATHER ROUNDUP  
NATIONAL WEATHER SERVICE NEW YORK NY  
900 PM EST SUN DEC 09 2018  
 
NOTE: "FAIR" INDICATES FEW OR NO CLOUDS BELOW 12,000 FEET WITH NO  
SIGNIFICANT WEATHER AND/OR S TO VISIBILITY
.  
 
NYZ071-072-176-178-NJZ106-104-100300-  
NEW YORK CITY METRO AREA  
 
CITY SKY/WX TMP DP RH WIND PRES REMARKS
 
CENTRAL PARK FAIR 33 15 47 MISG 30.21F  
BRONX LEHMAN C N/A 32 16 51 NW7 N/A WCI 26  
LAGUARDIA ARPT CLOUDY 35 15 44 W6 30.19F WCI 30  
QUEENS COLLEGE N/A 34 19 55 W8 N/A WCI 27  
KENNEDY INTL CLOUDY 34 22 61 W9 30.21F WCI 27  
BREEZY POINT N/A 32 N/A N/A W6 N/A WCI 26  
BROOKLYN COLL N/A 34 18 51 SW7 N/A WCI 28  
STATEN ISLAND N/A 32 19 59 SW3 N/A  
NEWARK/LIBERTY CLOUDY 32 16 51 W5 30.20F WCI 27  
TETERBORO FAIR 32 16 51 NW5 30.20F WCI 27  

 
 
NYZ177-179-078>081-100300-  
LONG ISLAND NEW YORK  
 
CITY SKY/WX TMP DP RH WIND PRES REMARKS
 
JONES BEACH N/A 34 N/A N/A W9 N/A WCI 26  
WANTAGH N/A 34 25 69 W6 N/A WCI 29  
HEMPSTEAD N/A 34 27 75 SW2 30.22F  
MATINECOCK PT N/A 36 N/A N/A W14 N/A WCI 27  
FARMINGDALE FAIR 32 23 69 W3 30.19F  
MACARTHUR/ISP CLOUDY 31 23 72 NW5 30.19F WCI 26  
STONY BROOK N/A 32 25 74 W2 N/A  
SHIRLEY FAIR 28 21 75 CALM 30.20F  
MT SINAI HARB N/A N/A N/A N/A W3 N/A  
WESTHAMPTON FAIR 26 19 74 CALM 30.21F  
EAST HAMPTON FAIR 25 20 82 NW3 30.19F  
SOUTHOLD N/A 30 25 80 SW3 N/A  
MONTAUK N/A 35 28 75 SW5 30.19F WCI 31  

 
 
NYZ052-065-067-100300-  
HUDSON VALLEY  
 
CITY SKY/WX TMP DP RH WIND PRES REMARKS
 
WHITE PLAINS FAIR 29 16 58 W6 30.17S WCI 23  
LARCHMONT HARB N/A 32 N/A N/A W5 N/A WCI 27  
CROTON ON HUDS N/A 32 N/A N/A W6 N/A WCI 26  
SOMERS N/A 27 18 69 SW1 N/A  
BREWSTER N/A 27 18 69 S1 N/A  
NEWBURGH NOT AVBL  
MONTGOMERY FAIR 26 16 65 CALM 30.18S  
OTISVILLE N/A N/A N/A N/A S3 N/A  
WARWICK N/A 27 18 69 W3 N/A  
SUFFERN N/A 28 16 59 W2 N/A  
POUGHKEEPSIE FAIR 29 14 53 VRB3 30.19F  
ALBANY MOCLDY 23 13 65 CALM 30.19S  

 
 
NJZ001-105-106-008-010-013-015-019>022-104-100300-  
NEW JERSEY  
 
CITY SKY/WX TMP DP RH WIND PRES REMARKS
 
NEWARK/LIBERTY CLOUDY 32 16 51 W5 30.20F WCI 27  
TETERBORO FAIR 32 16 51 NW5 30.20F WCI 27  
CALDWELL FAIR 28 17 63 CALM 30.21F  
SOMERVILLE FAIR 25 21 85 CALM 30.18F  
LINDEN FAIR 32 16 52 CALM 30.21F  
PERTH AMBOY N/A 32 N/A N/A W5 N/A WCI 27  
SUSSEX FAIR 25 17 72 CALM 30.18S  
ANDOVER N/A 25 17 72 CALM 30.18F  
TRENTON FAIR 30 19 63 CALM 30.19F  
MILLVILLE FAIR 32 21 64 N7 30.19F WCI 26  
ATLANTIC CITY FAIR 32 23 69 N5 30.20F WCI 27  
WRIGHTSTOWN CLOUDY 29 21 72 CALM 30.18F  
TOMS RIVER FAIR 29 24 82 CALM 30.21F  
BELMAR FAIR 30 22 72 CALM 30.21F  

 
 
PAZ047>061-062-071-100300-  
EASTERN PENNSYLVANIA  
 
CITY SKY/WX TMP DP RH WIND PRES REMARKS
 
PHILADELPHIA CLOUDY 31 17 56 N3 30.21F  
ALLENTOWN FAIR 27 16 63 W5 30.19F WCI 22  
SCRANTON FAIR 24 16 71 CALM 30.18F  

 
 
CTZ002-004>006-009-010-012-RIZ004-006-007-MAZ004-011-015-100300-  
SOUTHERN NEW ENGLAND  
 
IN CT  
 
CITY SKY/WX TMP DP RH WIND PRES REMARKS
 
BRADLEY INTL MOCLDY 27 15 61 S6 30.18F WCI 20  
HARTFORD FAIR 30 17 58 S5 30.20F WCI 25  
DANBURY FAIR 25 18 74 CALM 30.19F  
WTRBURY/OXFORD FAIR 26 18 71 W5 30.17F WCI 20  
NORWALK HARBOR N/A N/A N/A N/A W7 N/A  
BRIDGEPORT FAIR 32 19 58 W7 30.20F WCI 26  
MERIDEN FAIR 30 17 58 SW3 30.19F  
NEW HAVEN MOCLDY N/A N/A N/A W7 30.20F  
CHESTER FAIR 28 18 64 NW5 30.17S WCI 23  
GROTON FAIR 34 24 67 NW7 30.18F WCI 28  
WILLIMANTIC FAIR 25 19 78 CALM 30.19F  
 
IN RI  
 
CITY SKY/WX TMP DP RH WIND PRES REMARKS
 
PROVIDENCE CLOUDY 27 19 72 SW5 30.18F WCI 22  
BLOCK ISLAND FAIR 35 23 61 W12G18 30.18F WCI 27  
WESTERLY FAIR 36 26 67 W6 30.18F WCI 31  
 
IN MA  
 
CITY SKY/WX TMP DP RH WIND PRES REMARKS
 
BOSTON CLOUDY 31 16 54 SW12 30.16F WCI 22  
WORCESTER FAIR 25 13 60 W13 30.10S WCI 14  
WESTFIELD FAIR 25 13 60 S6 30.17S WCI 18  
PROVINCETOWN FAIR 33 23 66 W20G25 30.18F WCI 21  
NANTUCKET FAIR 35 24 64 SW10 30.17F WCI 27  

 
 
ANZ330-335-338-340-345-350-353-355-100300-  
COASTAL MARINE OBSERVATIONS  
 
 
STATION/POSITION TIME SKY/WX TEMP WIND PRES VSBY WAVE
 
AIR SEA DIR/SP/G HT/PER  
(UTC) (F) (DEG/KT/KT) (MB) (MI) (FT/S)  
NY HARB ENTRANCE 0150 36 46 280/ 8/ 10 1022.4 1/11  
20 S FIRE ISLAND 0150 39 48 240/ 4/ 8 1022.5 1/ 9  
GREAT SOUTH BAY 0130 34 36 280/ 6/ 6 N/A  
23 SSW MONTAUK P 0150 38 49 240/ 8/ 12 1022.8 1/ 9  
15 E BARNEGAT LI 0130 50 N/A 1/11  
HUDSON CANYON 0150 40 70/ 6/ 8 1022.9 1/ 9  
KINGS POINT 0130 34 42 330/ 7/ 9 1023.5  
EXECUTION ROCKS 0115 42 270/ 8/ 12 N/A  
WESTERN LI SOUND 0050 35 270/ 12/ 16 N/A 1  
CENTRAL LI SOUND 0115 37 46 250/ 14/ 17 N/A 2/ 3  
ROBBINS REEF 0130 33 280/ 6/ 7 1023.4  

 
 
>>>>>>>>>>>>>>>>>>>>>>>>>>>> KEY <<<<<<<<<<<<<<<<<<<<<<<<<<<  
> <  
> SKY/WX - SKY CONDITION/PRESENT WEATHER <  
> TMP - TEMPERATURE IN FAHRENHEIT <  
> DP - DEW POINT IN FAHRENHEIT <  
> RH - RELATIVE HUMIDITY IN PERCENT <  
> WIND - DIRECTION (FROM) AND SPEED IN MPH <  
> PRES - MEAN SEA LEVEL PRESSURE (INCHES OF HG) <  
> WCI - WIND CHILL INDEX <  
> VSB - VISIBILITY IN MILES <  
> HX - HEAT INDEX <  
> TC - TEMPERATURE IN CELSIUS <  
> VRB - VARIABLE WIND DIRECTION <  
> <  
>>>>>>>>>>>>>>>>>>>>>>>>>>>> KEY <<<<<<<<<<<<<<<<<<<<<<<<<<<  
 
 
CLICK HERE TO GO TO PREVIOUS BULLETINS.

The Nexlab NY Page
The Nexlab NJ Page
The Nexlab CT Page Main Text Page